[[{"header":{"parameterUnit":"m.s-1","parameterCategory":1,"la1":30.2991,"la2":30.254,"lo1":-89.0895,"lo2":-89.0444,"dy":0.0017,"dx":0.0017,"nx":28,"ny":28,"refTime":"2025-03-09T09:00:00:Z","depth":0,"parameterNumber":2,"parameterNumberName":"U-component_of_WINDS"},"data":[0,0,0,0,0,0,0,0,0,0,0,0,0,0,0,0,0,0,0,0,0,0,0,0,0,0,0,0,0,0,0,0,0,0,0,0,0,0,0,0,0,0,0,0,0,0,0,0,0,0,0,0,0,0,0,0,0,0,6.89,6.8902,0,6.9097,6.91,6.9102,6.9009,6.9004,6.8999,6.8994,6.9202,6.9212,6.9222,0,0,0,0,0,0,0,0,0,0,0,0,0,6.8451,6.8459,6.89,6.8902,6.8905,6.9097,6.91,6.9102,6.9009,6.9003,6.8997,6.8991,6.9199,6.9211,6.9223,0,0,0,0,0,0,0,0,0,0,0,0,0,6.8647,6.8462,6.89,6.8882,6.8882,6.9096,6.91,6.9103,6.9011,6.9003,6.8996,6.8989,6.9195,6.9209,6.9225,6.947,0,0,6.9272,6.9278,0,0,0,0,0,0,0,0,6.8636,6.8663,6.8882,6.8883,6.8884,6.902,6.9017,6.9227,6.9013,6.8962,6.8994,6.8985,6.9148,6.9167,6.9221,6.948,6.9489,6.9273,6.9282,6.9289,6.9293,0,0,0,0,0,0,0,6.8622,6.8655,6.8978,6.8885,6.8887,6.8866,6.8886,6.9057,6.9095,6.8966,6.896,6.8984,6.9147,6.9206,6.9225,6.9492,6.9272,6.9286,6.9296,6.9302,6.9967,6.9975,0,0,0,0,0,0,6.8608,6.8644,6.8972,6.8984,6.8739,6.888,6.8902,6.8984,6.9093,6.9102,6.899,6.8979,6.9183,6.9207,6.9232,6.9529,6.9289,6.9303,6.9312,6.9959,6.9969,6.9978,0,0,0,0,0,0,6.8599,6.8638,6.8964,6.8812,6.8852,6.8896,6.8989,6.8992,6.9051,6.9111,6.9118,6.9043,6.9178,6.921,6.9412,6.9535,6.931,6.9324,6.9949,6.9962,6.9974,7.0124,0,0,0,0,0,0,6.8587,6.8636,6.8727,6.8815,6.8861,6.9139,6.8997,6.9002,6.9077,6.9064,6.9162,6.9171,6.9175,6.939,6.9427,6.9552,6.9336,6.9938,6.9955,6.997,7.0109,7.0141,7.0168,0,0,0,0,0,6.8571,6.8762,6.8732,6.8773,6.8976,6.9146,6.9173,6.9171,6.9087,6.9181,6.9221,6.9168,6.9515,6.9411,6.9453,6.9584,6.993,6.995,6.9969,7.0095,7.0134,7.0167,0,0,0,0,0,0,6.8689,6.8773,6.8741,6.8966,6.905,6.913,6.9248,6.9212,6.9322,6.9306,6.9301,6.9324,6.9534,6.9579,6.9462,6.983,6.971,6.9739,6.9793,6.983,6.9859,6.9845,6.9349,0,0,0,0,0,6.8741,6.8871,6.8938,6.913,6.9174,6.9205,6.9279,6.927,6.9357,6.9393,6.9446,6.9535,6.9664,6.9749,6.9871,7.0114,7.0137,7.0226,7.0255,7.0279,7.0305,7.044,7.0482,7.0041,7.0041,7.0041,0,0,6.8851,6.8913,6.8995,6.9156,6.9219,6.9356,6.9235,6.9384,6.9486,6.9416,6.961,6.9653,6.9752,6.9977,7.0078,7.002,7.0431,7.0304,7.0322,7.0335,7.0464,7.0506,7.0543,7.0054,7.0052,7.005,0,0,6.9121,6.9179,6.9347,6.9414,6.9511,6.9531,6.9572,6.9659,6.9684,6.9879,6.983,6.9953,7.0174,7.0248,7.0314,7.0615,7.0573,7.0655,7.0811,7.0943,7.0978,7.1009,7.1119,7.1159,7.068,7.068,7.068,0,6.9245,6.9447,6.9439,6.9593,6.9667,6.9608,6.9781,6.9846,6.998,7.0033,6.9966,7.0245,7.0307,7.055,7.0624,7.0678,7.0727,7.0644,7.0973,7.1004,7.1033,7.1138,7.1179,7.069,7.0688,7.0687,7.0687,0,6.9597,6.9738,6.9862,6.9992,7.0079,7.0242,7.0262,7.0352,7.0337,7.0365,7.0566,7.0638,7.0776,7.0832,7.0819,7.1075,7.1036,7.0972,7.0852,7.1084,7.1184,7.1224,7.0703,7.07,7.0697,7.0695,0,0,6.9946,7.007,7.0116,7.0176,7.028,7.0391,7.0552,7.0685,7.0764,7.0859,7.0996,7.1187,7.1128,7.1204,7.1199,7.1315,7.1553,7.1236,7.1238,7.1295,7.1843,7.1893,7.1939,7.1524,7.1532,7.1538,7.1836,0,7.0225,7.0505,7.0505,7.0765,7.0897,7.0845,7.0986,7.1068,7.1099,7.1218,7.1252,7.1388,7.1299,7.1345,7.1457,7.15,7.1663,7.1478,7.1656,7.1662,7.1634,7.199,7.2043,7.232,7.1874,7.1881,7.1885,0,7.0588,7.0694,7.0967,7.1055,7.1111,7.1237,7.1361,7.1474,7.1567,7.1582,7.1667,7.1645,7.1813,7.1688,7.1921,7.1796,7.1869,7.1901,7.1912,7.193,7.1789,7.2021,7.2408,7.2451,7.1946,7.1941,7.1936,0,7.0819,7.103,7.1222,7.1274,7.1381,7.1472,7.1521,7.1606,7.1687,7.1795,7.1849,7.1976,7.2047,7.2147,7.2162,7.2069,7.2398,7.2273,7.2418,7.2418,7.2491,7.2487,7.2898,7.2535,7.2534,7.2533,7.2532,0,7.1132,7.1302,7.1327,7.1446,7.1636,7.1634,7.1824,7.1866,7.1942,7.207,7.2033,7.2154,7.2164,7.2291,7.2303,7.2497,7.2528,7.2548,7.2549,7.2552,7.255,7.2601,7.2583,7.2544,7.2542,7.254,7.2538,0,7.1423,7.1446,7.1652,7.1736,7.1762,7.1899,7.1972,7.2087,7.2114,7.2277,7.2315,7.236,7.2507,7.253,7.2703,7.2712,7.2945,7.2925,7.2913,7.2911,7.3056,7.3043,7.3516,7.358,7.3173,7.3177,7.318,0,7.1622,7.1752,7.1851,7.1933,7.1986,7.2119,7.2201,7.2206,7.2294,7.2411,7.2513,7.2655,7.2769,7.3007,7.3057,7.319,7.3175,7.3332,7.3195,7.3195,7.3181,7.3174,7.3189,7.3359,7.3363,7.3367,7.3369,0,7.1975,7.198,7.2099,7.2224,7.2323,7.2422,7.2516,7.2586,7.2603,7.2705,7.2853,7.2942,7.3118,7.3262,7.3394,7.3448,7.3415,7.3412,7.3453,7.3459,7.3447,7.3459,7.2987,7.3402,7.3398,7.3396,7.3394,7.3393,7.2228,7.2342,7.243,7.2565,7.2636,7.2724,7.2837,7.2879,7.3002,7.3145,7.3141,7.3305,7.3398,7.3572,7.3635,7.3766,7.3716,7.3774,7.379,7.3805,7.3821,7.3425,7.379,7.3789,7.3788,7.3787,7.3787,0,7.2581,7.2635,7.2759,7.2891,7.2999,7.2954,7.3056,7.315,7.3294,7.3383,7.3496,7.3669,7.3809,7.387,7.4008,7.4101,7.4089,7.4138,7.4132,7.4146,7.3856,7.3808,7.4145,7.4145,7.4145,7.4145,7.4145,7.4145,7.2778,7.2969,7.2986,7.3213,7.3267,7.3426,7.3489,7.3572,7.3642,7.3837,7.3952,7.399,7.4069,7.4213,7.434,7.4355,7.4409,7.4465,7.4473,7.4202,7.4166,7.4131,7.4086,7.4476,7.4477,7.4752,7.4755,7.4757]},{"header":{"parameterUnit":"m.s-1","parameterCategory":1,"la1":30.2991,"la2":30.254,"lo1":-89.0895,"lo2":-89.0444,"dy":0.0017,"dx":0.0017,"nx":28,"ny":28,"refTime":"2025-03-09T09:00:00:Z","depth":0,"parameterNumber":3,"parameterNumberName":"V-component_of_WINDS"},"data":[0,0,0,0,0,0,0,0,0,0,0,0,0,0,0,0,0,0,0,0,0,0,0,0,0,0,0,0,0,0,0,0,0,0,0,0,0,0,0,0,0,0,0,0,0,0,0,0,0,0,0,0,0,0,0,0,0,0,-3.4825,-3.4826,0,-3.4897,-3.4898,-3.4899,-3.488,-3.4879,-3.4877,-3.4876,-3.4948,-3.4951,-3.4954,0,0,0,0,0,0,0,0,0,0,0,0,0,-3.467,-3.4673,-3.4825,-3.4826,-3.4827,-3.4897,-3.4898,-3.4899,-3.488,-3.4879,-3.4877,-3.4875,-3.4947,-3.4951,-3.4955,0,0,0,0,0,0,0,0,0,0,0,0,0,-3.4739,-3.4674,-3.4825,-3.4826,-3.4827,-3.4897,-3.4898,-3.4899,-3.4881,-3.4879,-3.4877,-3.4875,-3.4946,-3.495,-3.4955,-3.5028,0,0,-3.497,-3.4972,0,0,0,0,0,0,0,0,-3.4735,-3.4745,-3.4825,-3.4826,-3.4827,-3.4877,-3.487,-3.4942,-3.4881,-3.486,-3.4876,-3.4874,-3.4926,-3.4933,-3.4951,-3.5031,-3.5034,-3.4971,-3.4973,-3.4976,-3.4977,0,0,0,0,0,0,0,-3.4731,-3.4742,-3.4853,-3.4826,-3.4828,-3.4823,-3.483,-3.4883,-3.4904,-3.4862,-3.4861,-3.487,-3.4926,-3.4946,-3.4952,-3.5035,-3.497,-3.4975,-3.4978,-3.498,-3.5178,-3.518,0,0,0,0,0,0,-3.4725,-3.4738,-3.4851,-3.4856,-3.4775,-3.4827,-3.4835,-3.4863,-3.4904,-3.4908,-3.4871,-3.4869,-3.4939,-3.4947,-3.4955,-3.5042,-3.4975,-3.498,-3.4983,-3.5176,-3.5179,-3.5181,0,0,0,0,0,0,-3.4722,-3.4735,-3.4848,-3.4796,-3.481,-3.4832,-3.4864,-3.4866,-3.4886,-3.4911,-3.4914,-3.4888,-3.4937,-3.4948,-3.501,-3.5044,-3.4982,-3.4987,-3.5173,-3.5177,-3.518,-3.5218,0,0,0,0,0,0,-3.4718,-3.4734,-3.4763,-3.4797,-3.4813,-3.4903,-3.4866,-3.4869,-3.4894,-3.4891,-3.4927,-3.4931,-3.4937,-3.5003,-3.5015,-3.505,-3.499,-3.517,-3.5175,-3.5179,-3.5213,-3.5222,-3.523,0,0,0,0,0,-3.4712,-3.477,-3.4764,-3.4778,-3.4849,-3.4905,-3.4914,-3.492,-3.4897,-3.4925,-3.4941,-3.493,-3.5038,-3.5009,-3.5022,-3.506,-3.5168,-3.5173,-3.5178,-3.521,-3.522,-3.5229,0,0,0,0,0,0,-3.4738,-3.4775,-3.4768,-3.4839,-3.4869,-3.4902,-3.4938,-3.4931,-3.4967,-3.4963,-3.4968,-3.4976,-3.5039,-3.5056,-3.5022,-3.5132,-3.51,-3.5108,-3.5119,-3.5129,-3.5137,-3.5132,-3.4994,0,0,0,0,0,-3.4752,-3.4795,-3.4824,-3.4884,-3.4899,-3.4916,-3.494,-3.4942,-3.4973,-3.4986,-3.5006,-3.5036,-3.5077,-3.5104,-3.5143,-3.5215,-3.5223,-3.5248,-3.5256,-3.5262,-3.5269,-3.5309,-3.532,-3.5199,-3.5199,-3.5199,0,0,-3.4782,-3.4807,-3.4834,-3.489,-3.4913,-3.4957,-3.4927,-3.4974,-3.5007,-3.4993,-3.5053,-3.5069,-3.5102,-3.517,-3.5201,-3.5185,-3.5304,-3.5269,-3.5274,-3.5278,-3.5316,-3.5327,-3.5337,-3.5202,-3.5202,-3.5201,0,0,-3.4858,-3.4882,-3.4934,-3.4958,-3.4994,-3.5005,-3.5017,-3.5051,-3.5061,-3.5121,-3.5112,-3.515,-3.522,-3.5245,-3.5266,-3.5352,-3.5342,-3.5364,-3.5406,-3.5445,-3.5454,-3.5463,-3.5493,-3.5504,-3.5371,-3.5371,-3.5371,0,-3.4891,-3.4957,-3.4962,-3.5011,-3.5036,-3.5025,-3.5078,-3.5101,-3.5147,-3.5165,-3.5147,-3.5235,-3.5257,-3.533,-3.5351,-3.5369,-3.5383,-3.536,-3.5452,-3.5461,-3.5469,-3.5498,-3.551,-3.5373,-3.5373,-3.5373,-3.5373,0,-3.4995,-3.5041,-3.5079,-3.5125,-3.5154,-3.5204,-3.5216,-3.5245,-3.5244,-3.5256,-3.5318,-3.5343,-3.5388,-3.5405,-3.5404,-3.5478,-3.5468,-3.5451,-3.5419,-3.5483,-3.5511,-3.5522,-3.5377,-3.5376,-3.5375,-3.5375,0,0,-3.5091,-3.5138,-3.5152,-3.5173,-3.5211,-3.5247,-3.5296,-3.534,-3.5365,-3.5397,-3.5439,-3.5498,-3.5483,-3.5508,-3.551,-3.5543,-3.561,-3.5523,-3.5524,-3.5538,-3.5693,-3.5705,-3.5718,-3.5603,-3.5605,-3.5607,-3.569,0,-3.5171,-3.526,-3.5265,-3.5345,-3.5387,-3.5378,-3.5421,-3.5449,-3.5461,-3.5499,-3.5512,-3.5555,-3.5531,-3.5546,-3.5579,-3.5595,-3.5641,-3.5589,-3.5642,-3.5644,-3.5635,-3.5733,-3.5746,-3.5823,-3.5701,-3.5703,-3.5704,0,-3.5277,-3.5313,-3.5397,-3.5429,-3.5447,-3.5486,-3.5527,-3.5562,-3.5594,-3.56,-3.5628,-3.5625,-3.5675,-3.5641,-3.571,-3.5675,-3.5697,-3.5708,-3.5711,-3.5717,-3.5678,-3.5742,-3.5848,-3.586,-3.5721,-3.572,-3.5718,0,-3.5339,-3.5408,-3.5468,-3.5486,-3.5525,-3.5552,-3.557,-3.5599,-3.5625,-3.5659,-3.5676,-3.5716,-3.5738,-3.5769,-3.5777,-3.5751,-3.5846,-3.5813,-3.5853,-3.5853,-3.5874,-3.5873,-3.5987,-3.5888,-3.5887,-3.5887,-3.5887,0,-3.5429,-3.5481,-3.5496,-3.5533,-3.5591,-3.5596,-3.5653,-3.5669,-3.5695,-3.5734,-3.5727,-3.5764,-3.5771,-3.5809,-3.5816,-3.5872,-3.5882,-3.5889,-3.589,-3.589,-3.5889,-3.5905,-3.59,-3.589,-3.589,-3.5889,-3.5888,0,-3.5509,-3.5521,-3.5585,-3.5617,-3.5626,-3.5667,-3.5694,-3.5729,-3.574,-3.579,-3.5802,-3.5819,-3.5864,-3.5874,-3.5927,-3.5931,-3.5999,-3.5994,-3.5988,-3.5988,-3.6028,-3.6025,-3.6157,-3.6174,-3.6063,-3.6064,-3.6065,0,-3.5566,-3.5606,-3.5641,-3.5667,-3.5686,-3.5728,-3.5754,-3.5761,-3.5788,-3.5826,-3.5857,-3.59,-3.5936,-3.6007,-3.6025,-3.6065,-3.6062,-3.6105,-3.6068,-3.6066,-3.6063,-3.6061,-3.6065,-3.6112,-3.6114,-3.6114,-3.6115,0,-3.5666,-3.567,-3.5708,-3.5749,-3.578,-3.5813,-3.5843,-3.5865,-3.5875,-3.5906,-3.5952,-3.5979,-3.6033,-3.6077,-3.6117,-3.6134,-3.6127,-3.6127,-3.6138,-3.6139,-3.6134,-3.6138,-3.6008,-3.6124,-3.6123,-3.6122,-3.6122,-3.6122,-3.5736,-3.5771,-3.5802,-3.5845,-3.5869,-3.5897,-3.5932,-3.5947,-3.5986,-3.603,-3.6031,-3.6081,-3.6111,-3.6164,-3.6184,-3.6222,-3.6209,-3.6226,-3.623,-3.6234,-3.6238,-3.6128,-3.6229,-3.6229,-3.6229,-3.6229,-3.6229,0,-3.5836,-3.5855,-3.5895,-3.5938,-3.5972,-3.5961,-3.5995,-3.6023,-3.6067,-3.6096,-3.6131,-3.6183,-3.6225,-3.6245,-3.6287,-3.6314,-3.6311,-3.6324,-3.6323,-3.6327,-3.6247,-3.6234,-3.6326,-3.6326,-3.6326,-3.6326,-3.6326,-3.6326,-3.5893,-3.5951,-3.5959,-3.6029,-3.6047,-3.6096,-3.6116,-3.6143,-3.6165,-3.6224,-3.6259,-3.6272,-3.6297,-3.634,-3.6378,-3.6383,-3.6399,-3.6414,-3.6417,-3.6342,-3.6333,-3.6323,-3.631,-3.6417,-3.6417,-3.6493,-3.6494,-3.6495]}]]